Vorticity
12 6 5 3 12 6 11 13 8 15 8 5 13 -3 14 -0 14 8 10 8 0 7 9 -1 9 9 6 5 1 -4 -1 2 3 5 7 6 6 4 4 5 4 4 4 5
-1 5 9 10 11 13 13 9 4 4 7 1 17 9 0 10 14 7 10 9 8 7 8 1 6 8 9 12 10 10 10 10 9 8 8 8 8 7 7 7 6 5 5 6
2 12 14 9 6 9 7 3 10 -3 15 2 4 8 15 15 8 9 10 7 13 7 7 4 7 10 9 8 7 7 6 9 9 9 8 8 7 6 6 5 5 8 8 9
3 -10 11 9 5 2 4 6 -0 5 5 16 8 7 7 6 6 6 -3 5 8 13 9 5 9 11 10 9 8 9 8 7 7 7 6 5 3 3 6 5 4 7 5 7
10 13 -1 2 3 8 1 11 6 5 9 1 25 8 11 11 5 9 11 3 12 10 8 8 -1 8 8 7 6 5 4 3 3 3 2 4 3 3 2 4 1 6 2 2
-5 7 12 5 5 12 7 8 9 4 7 27 17 2 21 23 9 22 23 13 10 6 9 7 6 4 4 5 4 3 2 4 4 6 6 4 6 4 4 3 3 6 5 6
8 -2 8 8 8 8 8 11 10 17 16 2 16 13 13 -0 11 10 11 11 18 13 8 6 8 3 3 8 4 3 5 4 4 4 7 8 7 7 6 5 8 11 -2 3
7 14 6 16 5 -8 10 12 -29 -1 10 17 4 11 18 14 0 9 11 16 11 2 18 14 5 6 6 7 6 8 4 3 2 3 8 8 5 4 11 4 5 13 17 30
6 -17 19 1 9 5 31 7 4 20 -0 9 -4 2 8 10 13 10 14 18 19 16 28 23 14 8 3 7 6 8 10 7 7 6 10 -3 1 -0 2 1 -1 -1 9 9
36 2 24 2 7 10 5 16 4 -0 11 6 39 10 7 8 14 10 5 5 11 25 11 13 27 13 11 7 3 2 6 6 6 4 2 3 6 5 8 7 4 8 5 8
-18 5 13 7 14 -1 14 4 3 16 0 8 8 11 8 9 10 -1 2 4 4 6 9 21 13 30 12 11 12 8 1 2 1 3 6 8 10 9 9 6 7 7 8 9
-0 22 5 -0 -1 6 12 11 1 -6 4 11 -6 16 -21 6 2 1 6 2 5 3 7 7 10 15 18 23 16 4 10 9 12 10 8 2 13 11 8 15 12 11 15 19
0 12 14 28 4 9 9 7 16 10 -2 15 -11 -6 -3 18 19 5 5 9 6 6 4 6 17 12 17 7 12 17 15 7 5 7 8 17 20 14 11 9 7 7 8 3
14 0 3 -8 -12 10 5 6 10 1 10 5 3 -0 2 2 -0 7 8 9 10 12 -0 7 1 6 9 9 15 16 17 14 10 13 11 5 4 3 6 6 7 7 9 10
2 3 -1 3 -4 7 18 18 8 5 -2 -6 -1 -1 5 14 13 7 21 4 -2 5 7 8 15 -3 7 8 5 8 7 6 4 2 5 7 3 3 6 3 9 8 8 11
17 13 6 1 13 5 4 8 7 6 14 17 13 6 10 6 9 10 16 9 9 1 5 9 2 1 6 10 20 5 2 6 10 3 3 -1 5 -0 5 11 7 11 14 14
7 15 8 22 7 7 21 10 7 10 8 7 8 10 7 10 12 7 9 1 10 9 9 2 -5 10 7 20 19 10 3 2 0 7 11 15 12 13 12 12 9 4 6 17
21 7 5 9 14 12 35 17 17 16 6 11 12 8 3 4 14 11 -11 -3 17 9 5 2 17 15 15 18 22 24 23 18 10 7 8 9 9 10 10 11 13 11 9 9
-2 24 17 4 -3 -6 8 16 2 2 9 13 12 8 10 11 4 9 18 14 17 15 12 21 17 16 20 14 6 4 5 6 8 9 9 11 11 9 8 8 9 16 18 19
8 10 11 39 -2 1 2 1 -2 2 4 16 10 11 13 14 10 21 9 14 19 16 17 13 13 11 6 4 4 5 5 6 7 10 10 9 7 10 12 15 15 10 10 12
6 12 11 12 10 32 13 20 23 8 5 4 16 8 11 6 8 2 20 10 12 15 13 13 7 3 4 4 4 5 7 11 12 10 8 10 12 12 11 11 12 15 10 8
10 -22 18 22 9 18 4 6 -0 -12 18 7 6 7 1 8 2 9 17 9 13 19 15 8 5 3 5 6 8 9 11 10 9 8 9 9 10 10 14 16 11 9 10 8
20 1 15 1 16 0 16 27 19 18 -1 7 6 -1 5 13 9 3 17 12 16 19 10 7 3 4 5 5 7 8 8 8 8 7 6 8 10 17 11 9 10 8 7 7
-1 -13 -3 0 16 -0 1 3 6 5 9 4 3 8 11 11 11 5 11 16 18 17 12 4 7 5 5 7 9 8 7 7 7 6 6 10 17 10 9 8 8 7 6 7
11 5 17 18 -0 -4 5 8 18 10 3 3 7 2 8 7 12 8 11 18 16 17 7 9 5 4 4 7 8 7 8 6 4 8 12 16 11 10 9 7 6 7 8 8
6 3 5 0 14 20 26 21 16 28 6 7 7 12 9 9 11 12 13 20 13 10 7 6 4 2 7 8 7 7 6 4 7 11 17 11 10 8 6 8 8 8 8 7
Height
3107 3111 3108 3106 3105 3105 3104 3100 3099 3099 3101 3102 3100 3098 3097 3098 3099 3102 3103 3104 3103 3105 3106 3103 3104 3106 3108 3111 3113 3115 3117 3120 3122 3125 3128 3131 3134 3137 3140 3142 3144 3146 3147 3150
3108 3104 3104 3104 3104 3104 3105 3102 3099 3099 3100 3101 3099 3097 3098 3098 3098 3101 3102 3103 3103 3105 3105 3104 3105 3106 3108 3111 3113 3115 3118 3120 3123 3125 3129 3132 3134 3137 3139 3141 3142 3143 3145 3146
3101 3101 3101 3102 3103 3103 3103 3099 3100 3099 3101 3098 3097 3094 3095 3096 3097 3098 3100 3102 3101 3104 3105 3104 3104 3106 3108 3110 3112 3115 3117 3120 3123 3125 3128 3131 3132 3134 3136 3138 3140 3141 3142 3142
3098 3099 3099 3100 3100 3101 3099 3099 3099 3098 3098 3094 3096 3092 3094 3094 3096 3097 3097 3097 3099 3101 3103 3104 3103 3105 3108 3110 3113 3115 3117 3119 3122 3124 3126 3128 3130 3132 3135 3136 3136 3137 3137 3139
3092 3094 3095 3097 3098 3099 3098 3099 3099 3098 3095 3092 3089 3089 3090 3089 3091 3093 3095 3095 3098 3100 3102 3103 3103 3105 3108 3110 3112 3114 3116 3118 3120 3122 3124 3126 3127 3129 3130 3131 3131 3133 3133 3133
3089 3091 3092 3093 3095 3096 3097 3098 3098 3096 3093 3091 3086 3086 3088 3085 3087 3088 3090 3093 3096 3098 3100 3102 3104 3105 3106 3108 3110 3112 3114 3116 3117 3119 3121 3123 3125 3126 3126 3127 3127 3127 3128 3129
3084 3086 3088 3090 3092 3094 3095 3095 3092 3092 3094 3086 3087 3085 3083 3085 3086 3088 3089 3091 3093 3095 3096 3098 3101 3101 3103 3105 3108 3110 3111 3114 3116 3117 3119 3121 3122 3123 3123 3122 3122 3118 3121 3119
3078 3081 3083 3085 3087 3088 3089 3089 3088 3089 3085 3088 3084 3082 3081 3082 3085 3086 3087 3088 3089 3090 3092 3093 3095 3098 3099 3102 3104 3106 3109 3110 3112 3115 3116 3117 3118 3118 3118 3116 3115 3112 3114 3113
3071 3074 3077 3081 3083 3086 3085 3085 3088 3086 3084 3084 3080 3079 3080 3082 3083 3084 3085 3085 3086 3087 3086 3089 3092 3093 3096 3097 3099 3102 3104 3106 3108 3110 3112 3112 3113 3113 3112 3110 3109 3109 3108 3106
3067 3071 3073 3078 3081 3082 3082 3084 3086 3084 3085 3084 3075 3075 3076 3080 3081 3083 3084 3085 3085 3083 3084 3085 3088 3090 3091 3094 3095 3097 3099 3101 3103 3104 3105 3107 3107 3108 3107 3104 3104 3103 3103 3100
3064 3066 3071 3074 3074 3076 3080 3080 3081 3083 3083 3079 3075 3073 3076 3078 3081 3082 3083 3084 3084 3083 3083 3083 3084 3086 3089 3090 3090 3090 3093 3095 3097 3097 3097 3098 3100 3101 3099 3099 3098 3097 3095 3093
3060 3064 3063 3068 3071 3072 3073 3075 3077 3078 3077 3078 3078 3075 3075 3078 3080 3080 3081 3081 3082 3082 3082 3082 3082 3082 3083 3084 3085 3085 3087 3089 3091 3091 3092 3092 3094 3093 3093 3092 3092 3091 3089 3087
3056 3058 3060 3062 3068 3068 3069 3070 3071 3073 3074 3076 3077 3077 3075 3075 3076 3077 3078 3079 3079 3079 3080 3080 3079 3079 3079 3080 3080 3081 3082 3084 3085 3086 3086 3087 3088 3087 3086 3086 3085 3083 3082 3080
3051 3054 3053 3053 3057 3063 3065 3066 3068 3069 3070 3072 3071 3070 3071 3072 3073 3074 3074 3075 3076 3076 3076 3077 3077 3077 3076 3076 3077 3077 3077 3079 3080 3081 3082 3082 3082 3082 3081 3080 3079 3077 3075 3073
3046 3047 3051 3053 3054 3055 3056 3059 3062 3063 3065 3065 3067 3066 3067 3068 3068 3069 3068 3068 3071 3071 3072 3072 3073 3072 3072 3072 3072 3073 3074 3075 3075 3076 3076 3076 3076 3075 3074 3073 3071 3070 3068 3066
3040 3042 3047 3048 3050 3051 3052 3054 3055 3056 3058 3059 3061 3061 3063 3064 3065 3065 3065 3064 3065 3066 3067 3067 3068 3067 3066 3066 3067 3068 3069 3070 3070 3070 3070 3070 3070 3069 3067 3066 3064 3063 3060 3058
3036 3039 3041 3042 3045 3047 3047 3048 3051 3052 3053 3055 3055 3058 3059 3059 3059 3060 3061 3059 3059 3060 3060 3061 3061 3059 3059 3059 3059 3062 3063 3064 3064 3064 3063 3062 3062 3061 3059 3057 3056 3054 3052 3050
3031 3034 3037 3039 3041 3039 3039 3044 3046 3047 3048 3049 3050 3051 3053 3053 3054 3054 3053 3052 3052 3052 3053 3053 3052 3051 3052 3052 3053 3055 3055 3056 3057 3057 3056 3055 3054 3053 3051 3049 3048 3046 3044 3042
3024 3030 3032 3033 3033 3036 3034 3037 3041 3043 3042 3043 3044 3045 3047 3046 3045 3046 3045 3045 3045 3045 3045 3045 3045 3046 3046 3047 3048 3049 3050 3050 3050 3049 3048 3048 3047 3046 3044 3042 3040 3038 3036 3034
3022 3024 3027 3028 3029 3026 3030 3035 3037 3039 3035 3037 3038 3039 3041 3039 3039 3041 3038 3038 3039 3039 3039 3040 3041 3042 3043 3043 3044 3045 3044 3044 3044 3043 3042 3041 3040 3038 3036 3034 3032 3031 3029 3027
3015 3018 3018 3022 3022 3020 3025 3028 3032 3034 3033 3033 3033 3035 3036 3035 3035 3033 3033 3033 3033 3033 3034 3036 3037 3038 3038 3039 3039 3039 3039 3038 3038 3037 3035 3034 3032 3031 3029 3027 3024 3022 3021 3019
3007 3011 3012 3016 3017 3018 3019 3023 3025 3025 3027 3028 3029 3030 3029 3028 3028 3028 3027 3027 3027 3027 3028 3030 3031 3033 3033 3033 3033 3032 3032 3031 3030 3030 3028 3026 3024 3022 3020 3018 3017 3015 3014 3012
3002 3005 3007 3010 3009 3012 3014 3017 3020 3022 3022 3023 3023 3023 3022 3021 3022 3022 3021 3021 3021 3022 3023 3024 3026 3027 3027 3027 3026 3026 3025 3024 3023 3021 3020 3018 3016 3014 3012 3011 3009 3007 3006 3004
2998 3001 3000 3004 3005 3008 3009 3011 3013 3015 3016 3017 3017 3017 3016 3015 3015 3015 3015 3015 3015 3016 3017 3018 3019 3020 3020 3020 3020 3019 3018 3016 3015 3013 3012 3010 3008 3006 3005 3003 3002 3000 2999 2995
2994 2996 2995 2995 2999 3003 3004 3005 3008 3009 3010 3010 3010 3009 3008 3008 3008 3008 3008 3007 3007 3009 3010 3012 3012 3012 3012 3012 3012 3011 3010 3009 3007 3006 3004 3002 3000 2999 2998 2996 2994 2992 2991 2987
2987 2988 2990 2989 2994 2995 2997 2999 3000 3001 3003 3002 3002 3001 3001 3001 3001 3001 3000 3000 3001 3001 3002 3004 3005 3005 3005 3005 3004 3003 3002 3000 2998 2996 2995 2994 2993 2992 2990 2988 2986 2985 2981 2978